Location: Cahas Mountain Overlook
(37.0833°N, 80.1000°W)
Time: 09:57:30
(UTC-05:00)

S-56A Canister/Altair - Pass Details

Date: 08 December 2023
Orbit: 640 x 2488 km, 38.9° (Epoch: 25 February)

Event Time Altitude Azimuth Distance (km) Brightness Sun altitude
Rises 12:45:43 0° 270° (W) 3,157 10.8 29.7°
Reaches altitude 10° 12:48:15 10° 273° (W) 2,120 10.0 29.6°
Maximum altitude 12:52:53 70° 357° (N) 677 7.5 29.4°
Drops below altitude 10° 12:57:26 10° 82° (E) 2,081 9.7 29.2°
Sets 12:59:54 0° 85° (E) 3,093 10.5 29.1°
